THY6RV LTFM-LTDB

Flight info

Callsign THY6RV
Flight time 1h 10m
Altitude 35000
Route RATVU1D/35L RATVU UT35 UNEPI UT38 KETEK UR55 MUT UW74 MANAZ
Aircraft B738/M-SDE2E3FGHIRWY/LB1

Departure

Time 2026-05-04 15:47
Airport İstanbul Airport (LTFM)

Arrival

Time 2026-05-04 16:58
Airport Çukurova International Airport (LTDB)
Time Latitude Longitude Altitude Speed Heading
2026-05-04 15:05 41.26554 28.73505 333 ft 0 kts 74°
2026-05-04 15:18 41.26548 28.73482 329 ft 4 kts 69°
2026-05-04 15:18 41.26537 28.73450 330 ft 4 kts 57°
2026-05-04 15:18 41.26520 28.73422 328 ft 4 kts 40°
2026-05-04 15:19 41.26481 28.73406 330 ft 2 kts 341°
2026-05-04 15:42 41.26482 28.73406 333 ft 2 kts 342°
2026-05-04 15:42 41.26538 28.73382 331 ft 11 kts 342°
2026-05-04 15:42 41.26596 28.73320 332 ft 11 kts 287°
2026-05-04 15:43 41.26599 28.73218 333 ft 11 kts 270°
2026-05-04 15:43 41.26599 28.73119 329 ft 11 kts 269°
2026-05-04 15:43 41.26589 28.73024 332 ft 10 kts 239°
2026-05-04 15:43 41.26522 28.72997 329 ft 12 kts 180°
2026-05-04 15:44 41.26424 28.72999 330 ft 15 kts 178°
2026-05-04 15:44 41.26323 28.73002 333 ft 14 kts 179°
2026-05-04 15:44 41.26229 28.72991 333 ft 11 kts 214°
2026-05-04 15:44 41.26217 28.72959 331 ft 0 kts 260°
2026-05-04 15:45 41.26217 28.72958 331 ft 0 kts 261°
2026-05-04 15:45 41.26214 28.72901 333 ft 13 kts 269°
2026-05-04 15:45 41.26214 28.72782 333 ft 13 kts 269°
2026-05-04 15:46 41.26211 28.72666 333 ft 12 kts 268°
2026-05-04 15:46 41.26211 28.72559 333 ft 11 kts 279°
2026-05-04 15:46 41.26251 28.72525 332 ft 0 kts 357°
2026-05-04 15:47 41.26342 28.72522 332 ft 49 kts 359°
2026-05-04 15:47 41.26978 28.72509 333 ft 130 kts 359°
2026-05-04 15:47 41.28105 28.72486 500 ft 188 kts 359°
2026-05-04 15:47 41.29533 28.72456 948 ft 223 kts 359°
2026-05-04 15:48 41.31000 28.72470 2548 ft 197 kts
2026-05-04 15:48 41.32391 28.72495 3572 ft 205 kts
2026-05-04 15:48 41.35334 28.72453 4904 ft 216 kts 347°
2026-05-04 15:49 41.36678 28.71555 5619 ft 220 kts 323°
2026-05-04 15:49 41.37675 28.69981 6340 ft 227 kts 304°
2026-05-04 15:49 41.38175 28.67929 6909 ft 244 kts 282°
2026-05-04 15:49 41.38232 28.65545 7277 ft 269 kts 275°
2026-05-04 15:50 41.38180 28.63010 7935 ft 278 kts 275°
2026-05-04 15:50 41.38116 28.60405 8673 ft 286 kts 272°
2026-05-04 15:50 41.37542 28.57785 9366 ft 309 kts 244°
2026-05-04 15:50 41.36035 28.55666 10050 ft 327 kts 213°
2026-05-04 15:51 41.33847 28.54673 10464 ft 345 kts 183°
2026-05-04 15:51 41.31382 28.54748 10675 ft 365 kts 172°
2026-05-04 15:51 41.28776 28.55036 10861 ft 387 kts 173°
2026-05-04 15:51 41.26073 28.55525 11316 ft 395 kts 159°
2026-05-04 15:52 41.23610 28.57037 12081 ft 387 kts 140°
2026-05-04 15:52 41.21604 28.59346 12927 ft 380 kts 130°
2026-05-04 15:52 41.19721 28.61836 13649 ft 384 kts 129°
2026-05-04 15:52 41.17828 28.64352 14268 ft 388 kts 130°
2026-05-04 15:53 41.15888 28.66876 14895 ft 392 kts 130°
2026-05-04 15:53 41.13919 28.69402 15500 ft 396 kts 131°
2026-05-04 15:53 41.12011 28.72044 16118 ft 395 kts 122°
2026-05-04 15:53 41.10520 28.75085 16804 ft 393 kts 116°
2026-05-04 15:54 41.09089 28.78190 17409 ft 397 kts 117°
2026-05-04 15:54 41.07599 28.81305 18002 ft 402 kts 118°
2026-05-04 15:54 41.06074 28.84417 18554 ft 405 kts 118°
2026-05-04 15:54 41.04511 28.87540 19078 ft 409 kts 122°
2026-05-04 15:55 41.02443 28.90212 19587 ft 425 kts 142°
2026-05-04 15:55 40.99728 28.91847 20114 ft 438 kts 162°
2026-05-04 15:55 40.96656 28.92243 20600 ft 450 kts 181°
2026-05-04 15:55 40.93522 28.91793 21067 ft 456 kts 185°
2026-05-04 15:56 40.90357 28.91283 21455 ft 461 kts 184°
2026-05-04 15:56 40.87153 28.90854 21865 ft 464 kts 180°
2026-05-04 15:56 40.83922 28.90897 22287 ft 464 kts 173°
2026-05-04 15:56 40.80737 28.91199 22723 ft 467 kts 171°
2026-05-04 15:57 40.77708 28.91604 23117 ft 467 kts 166°
2026-05-04 15:57 40.76450 28.91927 23286 ft 466 kts 162°
2026-05-04 15:57 40.73383 28.93216 23709 ft 462 kts 152°
2026-05-04 15:57 40.70540 28.95031 24068 ft 460 kts 147°
2026-05-04 15:58 40.67681 28.96949 24446 ft 462 kts 147°
2026-05-04 15:58 40.67086 28.97350 24517 ft 463 kts 147°
2026-05-04 15:58 40.64286 28.99230 24875 ft 465 kts 148°
2026-05-04 15:58 40.61391 29.01160 25251 ft 467 kts 148°
2026-05-04 15:59 40.58480 29.03083 25629 ft 469 kts 148°
2026-05-04 15:59 40.55555 29.05000 25997 ft 471 kts 148°
2026-05-04 15:59 40.52608 29.06922 26345 ft 473 kts 148°
2026-05-04 15:59 40.49655 29.08841 26672 ft 475 kts 148°
2026-05-04 16:00 40.46682 29.10770 26991 ft 477 kts 148°
2026-05-04 16:00 40.43765 29.12659 27322 ft 479 kts 148°
2026-05-04 16:00 40.40772 29.14597 27636 ft 480 kts 148°
2026-05-04 16:00 40.37765 29.16542 27936 ft 483 kts 148°
2026-05-04 16:01 40.34747 29.18493 28236 ft 485 kts 148°
2026-05-04 16:01 40.31712 29.20454 28523 ft 487 kts 148°
2026-05-04 16:01 40.28672 29.22416 28755 ft 489 kts 148°
2026-05-04 16:01 40.25619 29.24387 28946 ft 491 kts 148°
2026-05-04 16:02 40.22543 29.26369 29201 ft 492 kts 148°
2026-05-04 16:02 40.19474 29.28341 29645 ft 490 kts 148°
2026-05-04 16:02 40.13371 29.32255 30438 ft 488 kts 148°
2026-05-04 16:03 40.10275 29.34240 30729 ft 489 kts 148°
2026-05-04 16:03 40.07221 29.36197 30987 ft 490 kts 148°
2026-05-04 16:03 40.04198 29.38134 31267 ft 490 kts 149°
2026-05-04 16:03 40.01142 29.40087 31636 ft 488 kts 149°
2026-05-04 16:04 39.98090 29.42036 31986 ft 487 kts 149°
2026-05-04 16:04 39.92001 29.45921 32538 ft 488 kts 150°
2026-05-04 16:04 39.88955 29.47862 32862 ft 487 kts 150°
2026-05-04 16:05 39.85919 29.49794 33187 ft 485 kts 151°
2026-05-04 16:05 39.82889 29.51720 33467 ft 485 kts 151°
2026-05-04 16:05 39.76817 29.55575 34011 ft 484 kts 152°
2026-05-04 16:06 39.73794 29.57491 34275 ft 483 kts 152°
2026-05-04 16:06 39.65760 29.62574 34870 ft 482 kts 152°
2026-05-04 16:07 39.61719 29.65127 35030 ft 485 kts 152°
2026-05-04 16:08 39.50604 29.72127 35031 ft 480 kts 153°
2026-05-04 16:09 39.35686 29.81485 35023 ft 476 kts 153°
2026-05-04 16:10 39.23645 29.89008 35025 ft 486 kts 153°
2026-05-04 16:11 39.11516 29.96553 35012 ft 481 kts 153°
2026-05-04 16:12 38.93510 30.07704 35026 ft 478 kts 154°
2026-05-04 16:13 38.81491 30.15112 35023 ft 481 kts 154°
2026-05-04 16:14 38.69396 30.22538 35022 ft 483 kts 154°
2026-05-04 16:16 38.54192 30.31834 35022 ft 485 kts 154°
2026-05-04 16:17 38.38957 30.41105 35011 ft 485 kts 155°
2026-05-04 16:18 38.26815 30.48463 35004 ft 481 kts 155°
2026-05-04 16:19 38.11726 30.57570 34992 ft 479 kts 155°
2026-05-04 16:20 37.97256 30.67793 34992 ft 479 kts 137°
2026-05-04 16:21 37.91079 30.77636 34973 ft 479 kts 126°
2026-05-04 16:22 37.87169 30.84465 34971 ft 479 kts 126°
2026-05-04 16:23 37.75236 31.04792 34961 ft 481 kts 127°
2026-05-04 16:25 37.63192 31.25114 34945 ft 483 kts 128°
2026-05-04 16:26 37.49081 31.48773 34929 ft 480 kts 128°
2026-05-04 16:28 37.39030 31.65526 34930 ft 481 kts 129°
2026-05-04 16:29 37.24813 31.89017 34915 ft 482 kts 129°
2026-05-04 16:31 37.14651 32.05706 34904 ft 483 kts 129°
2026-05-04 16:32 37.02403 32.25714 34894 ft 481 kts 130°
2026-05-04 16:33 36.94278 32.38924 34884 ft 477 kts 131°
2026-05-04 16:34 36.90456 32.45705 34874 ft 481 kts 119°
2026-05-04 16:34 36.89210 32.49588 34887 ft 484 kts 109°
2026-05-04 16:35 36.88229 32.62280 33140 ft 494 kts 92°
2026-05-04 16:35 36.88012 32.75146 30957 ft 494 kts 94°
2026-05-04 16:36 36.87899 32.79437 30204 ft 494 kts 94°
2026-05-04 16:36 36.87643 32.87940 28935 ft 484 kts 94°
2026-05-04 16:37 36.87380 32.96244 27816 ft 472 kts 95°
2026-05-04 16:37 36.87251 33.00317 27263 ft 467 kts 95°
2026-05-04 16:37 36.86996 33.08275 26204 ft 457 kts 95°
2026-05-04 16:38 36.86737 33.16192 25159 ft 449 kts 96°
2026-05-04 16:39 36.86350 33.27767 23629 ft 441 kts 96°
2026-05-04 16:39 36.86528 33.35400 22443 ft 439 kts 90°
2026-05-04 16:40 36.86952 33.42930 21415 ft 430 kts 90°
2026-05-04 16:40 36.87355 33.50309 20413 ft 422 kts 90°
2026-05-04 16:41 36.87720 33.57518 19443 ft 416 kts 91°
2026-05-04 16:41 36.88235 33.68187 17976 ft 405 kts 91°
2026-05-04 16:42 36.88727 33.78572 16477 ft 394 kts 91°
2026-05-04 16:43 36.89044 33.85358 15516 ft 388 kts 91°
2026-05-04 16:43 36.89352 33.92030 14597 ft 382 kts 91°
2026-05-04 16:43 36.89503 33.95329 14135 ft 379 kts 91°
2026-05-04 16:44 36.90088 34.08329 12182 ft 370 kts 91°
2026-05-04 16:45 36.90369 34.14689 11267 ft 364 kts 90°
2026-05-04 16:46 36.90771 34.23919 10507 ft 341 kts 90°
2026-05-04 16:46 36.91018 34.29654 10355 ft 319 kts 90°
2026-05-04 16:47 36.91249 34.35055 10095 ft 304 kts 91°
2026-05-04 16:47 36.91444 34.40235 9658 ft 294 kts 96°
2026-05-04 16:48 36.89331 34.47008 8862 ft 279 kts 120°
2026-05-04 16:48 36.88499 34.49188 8558 ft 278 kts 120°
2026-05-04 16:49 36.86901 34.53422 8307 ft 255 kts 120°
2026-05-04 16:49 36.85484 34.57209 8089 ft 227 kts 121°
2026-05-04 16:50 36.84193 34.60647 7605 ft 216 kts 122°
2026-05-04 16:50 36.82914 34.64041 6922 ft 215 kts 121°
2026-05-04 16:51 36.81593 34.67550 6152 ft 228 kts 121°
2026-05-04 16:51 36.80906 34.69375 5897 ft 235 kts 121°
2026-05-04 16:51 36.79507 34.73102 5584 ft 238 kts 121°
2026-05-04 16:52 36.78098 34.76851 5364 ft 239 kts 121°
2026-05-04 16:52 36.77389 34.78731 5257 ft 240 kts 121°
2026-05-04 16:53 36.75864 34.82389 5012 ft 232 kts 128°
2026-05-04 16:53 36.73605 34.86922 4999 ft 229 kts 128°
2026-05-04 16:54 36.72795 34.88572 4985 ft 217 kts 129°
2026-05-04 16:55 36.73242 34.94946 5016 ft 227 kts 30°
2026-05-04 16:55 36.75837 34.96941 4951 ft 212 kts 28°
2026-05-04 16:56 36.78291 34.98813 4489 ft 203 kts 28°
2026-05-04 16:56 36.81876 35.01557 3608 ft 198 kts 28°
2026-05-04 16:57 36.83056 35.02469 3041 ft 201 kts 30°
2026-05-04 16:57 36.85439 35.04412 1827 ft 203 kts 31°
2026-05-04 16:58 36.88992 35.06986 29 ft 158 kts 26°
2026-05-04 16:58 36.89484 35.07344 32 ft 44 kts 28°
2026-05-04 16:59 36.89948 35.07576 34 ft 26 kts
2026-05-04 17:00 36.90207 35.07427 37 ft 0 kts 293°
2026-05-04 17:00 36.90266 35.07228 43 ft 10 kts 270°
2026-05-04 17:01 36.90280 35.07092 42 ft 0 kts 301°